POLYTECH-UNIVERSE 3 (R*)

Last updated on Thu Oct 30 2025 00:03:10 GMT+0000 (Coordinated Universal Time)

1 57191U 23091AB 25302.53002743 .00006971 00000+0 36388-3 0 9997 2 57191 97.5404 356.8023 0015881 205.9099 154.1341 15.16136054128965
UTC large
Height (km)
Speed (km/s)
/
Latitude / Longitude
Inclination (degrees)
Orbital Period (minutes)
Azimuth
Elevation
Range (km)
Doppler Factor

Next 0 passes for location: London (51.5072 / 0.1276)

Sorry there are no passes over London.